Regional Weather Roundup
Issued by NWS

Home | Current Version | Previous Version | Text Only | Print | Product List | Glossary Off
Versions: 1 2 3 4 5 6 7 8 9 10 11 12 13 14 15 16 17 18 19 20 21 22 23 24 25 26 27 28 29 30 31 32 33 34 35 36 37 38 39 40 41 42 43 44 45 46 47 48 49 50

605
ASUS43 KMPX 071510
RWRMN
WEATHER ROUNDUP FOR MINNESOTA
NATIONAL WEATHER SERVICE TWIN CITIES/CHANHASSEN MN
900 AM CST SUN FEB 07 2016


NOTE: "FAIR" INDICATES FEW OR NO CLOUDS BELOW 12,000 FEET WITH NO
SIGNIFICANT WEATHER AND/OR OBSTRUCTIONS TO VISIBILITY. N/A MEANS
CURRENT SKY AND/OR WEATHER CONDITIONS ARE NOT AVAILABLE.

MNZ060>063-068>070-071600-
   Twin Cities Metro

CITY           SKY/WX    TMP DP  RH WIND       PRES   REMARKS
TWIN CITIES    PTSUNNY   37  26  64 W16G25    29.63S
ST PAUL        PTSUNNY   38  28  67 W15       29.64R
CRYSTAL        CLOUDY    38  27  64 W15G22    29.61S
BLAINE         PTSUNNY   39  28  65 W16G23    29.61R
LAKEVILLE      SUNNY     36  27  69 W22G30    29.63S
EDEN PRAIRIE   MOSUNNY   38  25  59 W17G26    29.64R
SOUTH ST PAUL  SUNNY     39  27  62 W15G22    29.63R
LAKE ELMO      CLOUDY    37  30  75 W15       29.62S
$$
MNZ001>005-007-008-013>017-022>024-027-028-071600-
   Northwest Minnesota

CITY           SKY/WX    TMP DP  RH WIND       PRES   REMARKS
BEMIDJI        FLURRIES  32  31  96 W17G26    29.46R WCI  21
HALLOCK        LGT SNOW  27  25  93 NW29G36   29.54R VSB 1   WCI  11
ROSEAU         LGT SNOW  28  23  80 NW14      29.45R VSB 3/4 WCI  17
WARROAD        LGT SNOW  28  25  86 W12       29.43R WCI  18
THIEF RVR FALL CLOUDY    32  28  86 NW21      29.51R WCI  20
CROOKSTON      LGT SNOW  32  32 100 NW22      29.54R WCI  19
FOSSTON        CLOUDY    30  28  93 W20       29.51S WCI  18
DETROIT LAKES  MIX PCPN  32  30  93 W21G30    29.56S WCI  20
MOORHEAD       LGT RAIN  36  28  75 W25G31    29.61S
PARK RAPIDS    LGT SNOW  33  29  85 W21       29.50S FOG     WCI  21
MAHNOMEN       CLOUDY    32  29  90 W23G29    29.53S WCI  19
$$
MNZ006-009>011-018-025>026-071600-
   North Central Minnesota

CITY           SKY/WX    TMP DP  RH WIND       PRES   REMARKS
BAUDETTE       LGT SNOW  29  26  89 NW13      29.41R VSB 3/4 WCI  19
FLAG ISLAND    LGT SNOW  28  27  93 NW18      29.40R WCI  16
INTL FALLS     CLOUDY    34  32  92 W6        29.38R FOG     WCI  29
WASKISH        CLOUDY    34  30  86 W13G20    29.42R WCI  25
LONGVILLE      LGT SNOW  34  30  86 W8        29.47R WCI  27
GRAND RAPIDS   CLOUDY    32  30  93 W8        29.44S WCI  25
CRANE LAKE     CLOUDY    32  30  93 S1        29.41S
ORR            LGT SNOW  32  30  93 CALM      29.36S
COOK           LGT SNOW  32  32 100 SW3       29.39S
WALKER         LGT SNOW  32  31  96 W14       29.47R VSB 1   WCI  22
$$
MNZ012-019>021-037-071600-
   Northeast Minnesota

CITY           SKY/WX    TMP DP  RH WIND       PRES   REMARKS
DULUTH         LGT SNOW  33  31  92 W12       29.43S FOG     WCI  24
ELY            CLOUDY    32  30  93 S3        29.39F
HIBBING        FLURRIES  32  31  96 SW6       29.41R WCI  26
EVELETH        LGT SNOW  32  32 100 SW7       29.41S WCI  26
DULUTH HARBOR  MIX PCPN  36  34  93 SW12      29.46F
TWO HARBORS    LGT SNOW  36  30  80 SW6       29.42F
SILVER BAY     LGT SNOW  34  30  86 CALM      29.41F
GRAND MARAIS     N/A     35  31  85 S12       29.48F WCI  27
G MARAIS ARPRT MIX PCPN  28  25  86 S5        29.43F VSB 1/4 WCI  23
$$
MNZ029>031-032-039>041-046>048-054>057-064-071600-
   West Central Minnesota

CITY           SKY/WX    TMP DP  RH WIND       PRES   REMARKS
FERGUS FALLS   PTSUNNY   34  27  75 W21G26    29.64S WCI  22
WHEATON        PTSUNNY   37  28  70 W21G31    29.69S
MORRIS         SUNNY     36  27  69 W21       29.65S
ALEXANDRIA     SUNNY     35  25  66 W23G35    29.61S WCI  23
ELBOW LAKE     PTSUNNY   34  27  75 NW20G29   29.64S HAZE    WCI  22
WADENA         RAIN      34  27  75 W16G29    29.54S WCI  23
GLENWOOD       SUNNY     34  27  75 W24G31    29.62F WCI  21
APPLETON       SUNNY     36  27  69 W21G26    29.69F
BENSON         SUNNY     36  27  69 NW18G25   29.67F
ORTONVILLE     SUNNY     36  25  64 W17G25    29.70S
MADISON        SUNNY     37  27  65 W21       29.72S
WILLMAR        FAIR      36  28  75 W18G24    29.68S
$$
MNZ033>034-036-042>043-049>051-058-059-071600-
   Central Minnesota

CITY           SKY/WX    TMP DP  RH WIND       PRES   REMARKS
ST CLOUD       CLOUDY    37  26  64 W22G32    29.58S
SAUK CENTRE    FAIR      34  26  72 W20G30    29.60S WCI  23
PAYNESVILLE    SUNNY     36  27  69 W22G32    29.63F
AITKIN         FLURRIES  37  30  75 W9        29.48R
PINE RIVER     LGT SNOW  34  32  93 W8G18     29.54S WCI  27
BRAINERD       LGT SNOW  33  30  88 W18G25    29.52S FOG     WCI  22
STAPLES        CLOUDY    34  28  80 W21G29    29.54S WCI  22
LONG PRAIRIE   PTSUNNY   34  27  75 W22G31    29.59S WCI  22
LITTLE FALLS   CLOUDY    36  27  69 W22G29    29.57S
LITCHFIELD     SUNNY     37  28  70 W17G26    29.65R
BUFFALO        MOSUNNY   37  26  62 W16G22    29.63S
MAPLE LAKE     SUNNY     38  28  66 W25G33    29.62S
$$
MNZ037-044-045-052-053-071600-
   East Central Minnesota

CITY           SKY/WX    TMP DP  RH WIND       PRES   REMARKS
PRINCETON      CLOUDY    39  28  65 W18G29    29.57F
MORA           PTSUNNY   36  30  80 W16G25    29.55S
CAMBRIDGE      CLOUDY    39  28  65 W14       29.55S
RUSH CITY      CLOUDY    36  30  78 W16G24    29.55S
MOOSE LAKE     CLOUDY    34  32  93 W10G16    29.46S WCI  26
HINCKLEY       CLOUDY    36  32  87 W13G25    29.52R
CLOQUET        FLURRIES  34  32  93 W9        29.44S WCI  26
MCGREGOR       CLOUDY    34  32  93 W10G16    29.48R WCI  26
$$
MNZ071>073-080-081-089-090-097-098-071600-
   Southwest Minnesota

CITY           SKY/WX    TMP DP  RH WIND       PRES   REMARKS
MONTEVIDEO     SUNNY     37  27  65 NW18G31   29.71F
GRANITE FALLS  SUNNY     37  29  74 W22G29    29.73F
CANBY          MOSUNNY   39  29  67 NW22G33   29.75F
MARSHALL       PTSUNNY   36  26  67 W24       29.74F
REDWOOD FALLS  SUNNY     37  26  64 W25G32    29.71S
OLIVIA         SUNNY     36  28  75 W21G30    29.68F
PIPESTONE      MOSUNNY   37  21  52 NW20      29.78F
WINDOM         PTSUNNY   36  28  75 W21       29.76R
WORTHINGTON    CLOUDY    34  25  69 W20       29.80F WCI  22
JACKSON        CLOUDY    36  27  69 W18G26    29.78R
TRACY          CLOUDY    36  28  72 W13G20    29.75F
SLAYTON        CLOUDY    33  28  80 W22G28    29.77F WCI  21
$$
MNZ065>067-074>077-082>085-091>093-071600-
   South Central Minnesota

CITY           SKY/WX    TMP DP  RH WIND       PRES   REMARKS
MANKATO        SUNNY     37  25  60 W21G32    29.71R
NEW ULM        SUNNY     34  25  69 W18       29.72R WCI  23
ST JAMES       SUNNY     34  27  75 W20       29.75S WCI  22
FAIRMONT       SUNNY     36  23  60 W22       29.75S
GLENCOE        MOSUNNY   36  29  75 W16G25    29.66S
FARIBAULT        N/A     37  27  65 W17G23    29.68S
OWATONNA       SUNNY     36  25  64 W20       29.69S
WASECA         SUNNY     32  27  80 W14       29.72S WCI  22
ALBERT LEA     SUNNY     34  25  69 W10G18    29.72R WCI  26
$$
MNZ078>079-086>088-094>096-071600-
   Southeast Minnesota

CITY           SKY/WX    TMP DP  RH WIND       PRES   REMARKS
ROCHESTER      SUNNY     33  25  72 W20       29.68S WCI  21
RED WING       SUNNY     39  27  60 W13G21    29.63S
STANTON        SUNNY     38  26  63 W15       29.65S
DODGE CENTER   SUNNY     36  25  64 W15G21    29.67S
WINONA         CLOUDY    36  28  75 W6        29.67F
AUSTIN         SUNNY     36  27  69 W14G20    29.72R
PRESTON        MOSUNNY   32  25  74 SW8       29.70S WCI  25
$$
ABBREVIATIONS USED IN REMARKS
   TC - TEMPERATURES IN CELSIUS
  WCI - WIND CHILL INDEX
   HX - HEAT INDEX
  VSB - VISIBILITY
$$




USA.gov is the U.S. government's official web portal to all federal, state and local government web resources and services.